| time (UTC) | temp C | wind direction | speed KPH | gust KPH | rain 1hr cm | rain 24hr cm | rain mn cm | humidity % | barometer mb |
| 20260904001307 | 17 | 70 | 3.2 | 3.2 | 0.00 | 0.00 | 0.00 | 68 | 1017.4 |
| 20260903234306 | 18 | 342 | 1.6 | 3.2 | 0.00 | 0.00 | 0.00 | 69 | 1017.2 |
| 20260903231304 | 18 | 189 | 0.0 | 1.6 | 0.00 | 0.00 | 0.00 | 70 | 1017.1 |
| 20260903224301 | 17 | 193 | 0.0 | 1.6 | 0.00 | 0.00 | 0.00 | 72 | 1017.5 |
| 20260903221301 | 17 | 209 | 0.0 | 1.6 | 0.00 | 0.00 | 0.00 | 76 | 1017.8 |
| 20260903214301 | 17 | 206 | 0.0 | 0.0 | 0.00 | 0.00 | 0.00 | 80 | 1018.0 |
| 20260903211257 | 17 | 207 | 0.0 | 0.0 | 0.00 | 0.00 | 0.00 | 77 | 1017.5 |
| 20260903204256 | 20 | 228 | 1.6 | 1.6 | 0.00 | 0.00 | 0.00 | 72 | 1017.4 |
| 20260903201254 | 18 | 209 | 0.0 | 1.6 | 0.00 | 0.00 | 0.00 | 73 | 1017.2 |
| 20260903194252 | 17 | 216 | 0.0 | 0.0 | 0.00 | 0.00 | 0.00 | 79 | 1017.5 |
| 20260903191250 | 17 | 167 | 1.6 | 1.6 | 0.00 | 0.00 | 0.00 | 86 | 1017.4 |
| 20260903184249 | 16 | 203 | 1.6 | 1.6 | 0.00 | 0.00 | 0.00 | 81 | 1017.4 |
| 20260903181244 | 15 | 197 | 1.6 | 1.6 | 0.00 | 0.00 | 0.00 | 85 | 1017.4 |
| 20260903174238 | 15 | 197 | 0.0 | 1.6 | 0.00 | 0.00 | 0.00 | 87 | 1017.3 |
| 20260903171233 | 15 | 183 | 3.2 | 4.8 | 0.00 | 0.00 | 0.00 | 85 | 1017.0 |
| 20260903164229 | 13 | 177 | 4.8 | 4.8 | 0.00 | 0.00 | 0.00 | 91 | 1017.0 |
| 20260903161225 | 13 | 197 | 4.8 | 8.0 | 0.00 | 0.00 | 0.00 | 93 | 1017.0 |
| 20260903154222 | 12 | 94 | 3.2 | 3.2 | 0.00 | 0.00 | 0.00 | 95 | 1016.8 |
| 20260903151217 | 11 | 213 | 3.2 | 3.2 | 0.00 | 0.00 | 0.00 | 98 | 1017.0 |
| 20260903144215 | 11 | 174 | 1.6 | 3.2 | 0.00 | 0.00 | 0.00 | 99 | 1017.0 |
| 20260903141213 | 11 | 189 | 3.2 | 3.2 | 0.00 | 0.00 | 0.00 | 99 | 1016.9 |
| 20260903134212 | 11 | 200 | 1.6 | 3.2 | 0.00 | 0.00 | 0.00 | 99 | 1016.9 |
| 20260903131212 | 11 | 199 | 0.0 | 0.0 | 0.00 | 0.00 | 0.00 | 99 | 1016.6 |
| 20260903124208 | 11 | 196 | 0.0 | 1.6 | 0.00 | 0.00 | 0.00 | 99 | 1016.5 |
| 20260903121207 | 11 | 203 | 0.0 | 0.0 | 0.00 | 0.00 | 0.00 | 99 | 1016.2 |
| 20260903114201 | 11 | 157 | 1.6 | 3.2 | 0.00 | 0.00 | 0.00 | 97 | 1016.0 |
| 20260903111202 | 11 | 199 | 0.0 | 0.0 | 0.00 | 0.00 | 0.00 | 98 | 1016.1 |
| 20260903104201 | 11 | 207 | 3.2 | 3.2 | 0.00 | 0.00 | 0.00 | 99 | 1016.1 |
| 20260903101200 | 11 | 212 | 3.2 | 3.2 | 0.00 | 0.00 | 0.00 | 98 | 1016.0 |
| 20260903094200 | 11 | 156 | 1.6 | 1.6 | 0.00 | 0.00 | 0.00 | 98 | 1015.9 |
| 20260903091155 | 11 | 196 | 1.6 | 1.6 | 0.00 | 0.00 | 0.00 | 97 | 1015.8 |
| 20260903084155 | 11 | 194 | 0.0 | 1.6 | 0.00 | 0.00 | 0.00 | 98 | 1015.2 |
| 20260903081154 | 11 | 189 | 4.8 | 4.8 | 0.00 | 0.00 | 0.00 | 95 | 1015.5 |
| 20260903074154 | 11 | 186 | 1.6 | 1.6 | 0.00 | 0.00 | 0.00 | 95 | 1015.4 |
| 20260903071151 | 12 | 208 | 1.6 | 1.6 | 0.00 | 0.00 | 0.00 | 94 | 1015.3 |
| 20260903064147 | 12 | 200 | 0.0 | 0.0 | 0.00 | 0.00 | 0.00 | 97 | 1015.2 |
| 20260903061146 | 11 | 186 | 3.2 | 3.2 | 0.00 | 0.00 | 0.00 | 99 | 1015.1 |
| 20260903054147 | 12 | 191 | 1.6 | 1.6 | 0.00 | 0.00 | 0.00 | 98 | 1015.4 |
| 20260903051143 | 12 | 171 | 4.8 | 4.8 | 0.00 | 0.00 | 0.00 | 99 | 1015.3 |
| 20260903044142 | 12 | 185 | 0.0 | 1.6 | 0.00 | 0.00 | 0.00 | 98 | 1015.4 |
| 20260903041142 | 13 | 179 | 1.6 | 3.2 | 0.00 | 0.00 | 0.00 | 98 | 1015.1 |
| 20260903034142 | 13 | 134 | 1.6 | 3.2 | 0.00 | 0.00 | 0.00 | 99 | 1014.9 |
| 20260903031141 | 13 | 198 | 0.0 | 0.0 | 0.00 | 0.00 | 0.00 | 99 | 1014.4 |
| 20260903024141 | 13 | 187 | 1.6 | 3.2 | 0.00 | 0.00 | 0.00 | 98 | 1013.9 |
| 20260903021137 | 13 | 193 | 1.6 | 1.6 | 0.00 | 0.00 | 0.00 | 99 | 1013.8 |
| 20260903014135 | 14 | 203 | 0.0 | 0.0 | 0.00 | 0.00 | 0.00 | 99 | 1013.5 |
| 20260903011134 | 13 | 206 | 1.6 | 1.6 | 0.00 | 0.00 | 0.00 | 99 | 1012.9 |
| 20260903004131 | 15 | 206 | 0.0 | 0.0 | 0.00 | 0.00 | 0.00 | 99 | 1012.7 |